{"data":{"norad_id":57113,"epoch":"2026-09-20T06:30:05.868000Z","epoch_age_seconds":140546,"freshness":"FRESH","line1":"1 57113U 23090N   26263.27090125  .00000030  00000+0  10627-4 0  9998","line2":"2 57113  43.0028 262.4459 0001530 263.7590  96.3087 15.27577963180092","mean_motion":15.27577963,"eccentricity":0.000153,"inclination_deg":43.0028,"raan_deg":262.4459,"arg_perigee_deg":263.759,"mean_anomaly_deg":96.3087,"bstar":1.0627e-5,"rev_number":18009,"period_min":94.266874416805,"perigee_km":482.00543315132,"apogee_km":484.10495796316,"semimajor_km":6861.1921955572,"source":"CELESTRAK","updated_at":"2026-09-21T09:00:33.560419Z"}}